Wind_Speed
12 13 13 14 15 16 17 18 19 20 21 22 22 23 24 25 25 26 24 17 12 11 7 3 6 6 4 4 4 3 8 6 3 1 3 1 0 1 3 3 3 4 4 4 3 5 3 2 2 3 6 3 4 2 2 2 2 3 3 3 1 3 3 5 7 6 4 1 3 4 5 6 3 2 2 1 2 3 1 3 2 3 3 2 4 3 21 32
11 12 13 13 14 15 16 17 17 19 20 20 21 22 23 24 25 25 25 20 15 13 10 6 4 6 6 6 6 5 9 8 3 1 1 1 0 2 3 4 3 4 4 4 3 3 3 1 2 5 4 3 3 2 2 2 3 3 3 2 2 5 5 5 6 6 3 0 2 4 3 3 5 5 4 3 2 2 3 4 2 5 5 2 2 12 24 29
11 12 12 13 13 14 15 16 17 17 18 19 20 21 22 22 24 24 24 22 17 14 13 9 5 5 6 7 7 6 8 7 3 3 2 1 1 2 4 5 4 3 4 4 4 4 4 2 4 6 4 3 1 2 3 3 1 1 3 2 4 5 4 4 6 6 5 3 4 4 2 2 4 5 4 3 2 2 6 7 4 8 9 5 6 14 22 25
12 12 13 13 14 14 15 16 17 17 18 19 20 20 21 21 22 23 24 23 19 15 15 12 7 5 6 8 7 6 6 5 2 3 3 1 1 3 4 5 5 4 4 5 5 5 5 5 5 4 4 2 3 3 2 3 1 1 3 3 4 3 2 4 7 6 5 4 5 4 3 2 3 3 3 5 3 4 8 10 11 14 12 9 7 13 20 22
12 13 14 14 15 16 17 17 17 18 18 19 19 20 20 20 21 22 23 23 20 16 15 14 9 5 5 7 6 5 4 4 3 3 3 2 1 3 4 5 6 3 3 5 4 4 4 5 6 5 4 2 3 3 0 3 1 1 0 4 4 3 1 4 5 4 4 4 4 5 4 3 3 2 4 8 8 7 6 9 13 13 9 12 12 15 18 18
12 13 14 15 16 17 17 18 19 19 19 19 19 20 20 20 20 21 23 22 21 18 14 13 10 6 3 4 5 3 2 0 3 3 3 2 1 4 4 5 5 3 4 4 4 5 4 5 6 4 3 3 1 2 2 3 2 0 2 3 3 4 3 2 3 3 4 6 5 5 3 3 4 4 4 9 14 7 1 3 8 7 9 16 17 16 14 14
12 12 13 14 15 16 18 18 19 19 19 19 19 20 20 21 20 21 22 22 22 18 14 11 10 7 1 3 3 0 2 4 4 4 4 3 2 3 4 4 4 4 3 4 4 4 5 7 5 3 4 3 2 2 2 2 3 3 1 3 2 3 5 2 2 3 4 5 5 3 2 4 6 4 1 8 16 8 1 1 2 6 13 17 14 12 13 15
12 13 13 13 14 16 17 18 19 19 19 19 20 20 21 21 21 21 21 22 22 18 13 10 8 4 1 3 2 2 2 4 3 4 4 3 3 3 3 2 4 3 4 7 5 4 4 5 3 3 3 2 4 3 2 0 3 3 2 3 1 2 6 4 0 3 4 3 1 3 3 4 5 2 2 11 15 8 3 2 5 8 12 13 12 11 12 14
12 13 13 13 14 15 16 17 18 19 20 20 20 21 21 22 21 21 21 21 22 17 13 9 5 1 2 2 3 2 4 4 3 3 3 3 3 2 2 1 3 2 5 8 6 4 3 2 3 4 3 2 4 2 0 0 1 2 4 3 2 3 5 3 2 2 2 2 3 3 6 5 2 1 7 13 9 5 4 5 6 8 9 10 10 10 11 11
13 13 13 14 14 15 16 17 18 19 20 20 21 21 21 22 22 22 21 21 21 17 11 9 4 2 3 1 4 0 5 3 3 3 2 2 2 2 1 1 2 3 5 6 6 6 4 5 4 4 5 3 3 1 1 1 1 3 4 4 4 3 5 2 3 3 1 2 5 6 7 5 3 2 6 7 1 5 7 5 5 9 9 10 9 9 12 13
15 14 14 14 15 15 16 17 19 19 20 21 22 22 22 23 23 23 22 21 21 16 10 8 5 3 4 2 4 3 4 3 3 2 1 2 2 2 1 2 2 3 5 7 6 6 5 8 9 5 2 1 2 1 2 2 2 1 2 3 4 4 5 2 3 5 1 2 6 7 5 3 3 2 10 4 3 5 7 6 6 8 8 8 9 8 10 13
17 16 16 15 15 15 16 17 19 20 21 21 22 23 23 23 23 23 23 22 21 14 8 6 5 3 2 1 4 7 5 4 3 2 1 2 3 3 3 3 3 4 4 6 5 5 7 8 9 5 0 3 2 1 1 2 3 0 2 2 6 7 4 4 2 3 2 2 6 6 3 4 4 11 12 3 4 4 6 7 6 8 7 6 8 6 6 11
19 19 18 18 17 16 16 18 19 20 21 22 22 23 23 23 24 23 24 23 18 10 5 5 4 3 2 1 5 7 7 5 4 2 1 3 4 3 5 4 4 5 4 7 8 8 7 5 7 5 2 4 1 1 3 3 3 0 2 0 4 7 5 3 1 1 2 3 5 4 4 6 10 16 11 3 6 5 5 7 6 6 7 6 7 6 6 10
20 20 20 20 20 18 17 18 19 20 21 22 22 23 23 23 23 24 25 21 13 5 3 3 3 3 3 3 4 5 7 6 4 3 2 3 5 5 6 5 6 7 6 8 10 9 7 5 8 7 2 3 1 2 3 5 3 0 1 1 2 2 4 5 1 3 3 2 3 3 4 9 9 13 9 5 7 8 7 8 6 7 7 6 8 8 7 10
21 21 22 22 22 21 19 19 19 20 21 22 22 23 23 22 23 25 23 15 6 2 2 1 2 4 1 4 3 3 6 5 5 4 3 3 4 4 5 6 8 9 9 9 10 9 7 7 8 5 0 1 2 3 3 4 3 3 1 3 2 1 4 8 3 5 3 0 1 4 4 10 11 9 5 4 6 7 9 8 7 8 9 8 8 8 8 9
22 23 23 23 23 22 21 20 20 20 21 21 22 22 21 21 23 22 16 8 3 2 1 1 5 5 0 3 1 1 3 4 4 5 4 3 3 4 7 8 7 8 8 8 9 8 6 6 4 2 1 1 3 4 3 4 4 3 1 3 3 2 3 6 3 4 3 0 1 4 3 7 9 6 1 3 7 7 8 9 9 10 10 9 8 9 8 8
22 23 24 24 23 22 21 21 20 20 21 21 22 22 21 20 20 15 9 4 1 2 2 3 5 3 1 2 1 2 1 3 4 4 4 3 3 6 8 6 5 7 7 7 6 4 4 4 1 0 2 2 2 4 3 3 4 3 1 2 4 3 3 4 4 3 1 2 4 4 5 11 14 9 3 4 7 7 9 11 10 10 9 9 8 9 10 10
21 22 24 24 24 23 22 21 20 20 22 21 21 22 20 16 13 7 2 0 1 3 3 2 4 2 3 2 1 3 1 3 3 4 5 4 4 5 5 4 4 5 6 4 2 1 2 3 2 1 3 2 2 5 2 4 4 3 3 3 4 3 4 5 5 2 1 2 5 4 7 15 19 17 10 6 8 9 12 12 10 10 11 10 9 10 10 11
20 21 22 24 24 24 23 21 20 19 21 21 19 18 15 10 6 2 1 2 1 1 1 2 2 2 3 3 2 2 2 3 3 4 6 5 5 5 5 5 5 4 3 1 2 2 1 2 2 1 2 2 4 6 8 8 7 6 5 4 5 5 5 6 5 4 1 1 7 8 10 14 17 19 17 7 7 10 13 10 8 9 11 10 9 10 11 12
19 20 21 23 24 24 22 20 19 17 18 19 19 15 7 3 4 3 2 0 4 3 2 5 5 2 4 3 1 3 4 3 4 4 6 7 6 5 4 5 5 4 2 3 1 1 2 1 4 7 7 7 9 8 6 4 6 5 4 4 5 5 7 6 3 3 1 1 8 10 9 13 16 18 19 9 5 9 14 10 10 12 12 10 10 11 13 14
19 19 20 22 24 24 21 19 18 15 14 15 14 9 0 3 1 4 4 5 7 4 4 6 4 5 8 4 3 5 3 2 3 4 8 8 6 4 1 3 3 0 2 3 2 1 2 3 9 10 9 7 6 6 5 5 5 3 4 4 4 5 7 7 2 4 2 2 6 7 7 14 16 17 19 11 7 14 16 11 13 16 14 9 10 13 14 11
19 19 19 21 23 24 22 19 16 13 12 10 7 3 2 4 3 3 0 4 8 4 5 4 1 7 9 6 6 5 3 2 4 4 9 7 4 4 2 3 5 4 2 1 2 1 1 6 12 8 7 5 5 5 6 5 5 3 3 2 4 4 5 6 3 4 2 2 5 6 8 15 18 17 21 18 13 16 14 11 15 18 14 10 11 13 12 10
18 19 19 19 22 24 22 19 15 12 10 7 5 3 3 2 4 4 3 1 7 4 3 3 3 6 6 5 7 8 4 5 4 6 10 10 2 4 4 5 5 3 1 4 5 3 3 8 9 4 8 8 5 4 6 5 3 3 3 3 5 3 1 4 4 4 2 2 4 7 10 14 15 15 18 16 9 11 11 11 15 14 12 12 12 12 11 13
17 18 18 18 21 23 22 19 13 9 7 6 5 5 5 4 5 4 2 0 4 5 3 5 4 5 4 1 7 10 4 4 4 4 9 11 4 3 4 5 5 2 4 7 9 7 8 7 2 6 6 7 6 3 6 5 2 3 5 6 6 4 5 6 3 4 3 2 3 6 11 11 7 9 11 5 3 7 7 8 13 12 10 9 9 10 12 14
16 16 16 17 19 22 22 16 8 5 6 6 5 5 6 6 6 4 1 1 3 5 4 4 2 4 5 4 6 9 2 2 4 3 7 9 6 4 2 3 4 6 7 7 8 7 9 6 6 6 3 5 6 4 5 7 3 4 6 10 9 7 7 5 2 4 4 3 3 5 7 9 1 4 8 4 3 7 3 5 12 10 7 7 9 10 10 11
16 16 16 15 16 23 19 8 6 7 7 5 3 5 6 7 6 3 2 2 4 5 2 3 2 4 6 4 2 5 2 3 3 1 4 5 4 4 2 1 1 4 6 7 5 4 4 0 4 6 5 5 5 5 6 8 5 3 5 7 7 5 4 3 0 2 1 3 3 4 1 9 3 4 6 4 3 8 6 7 11 9 6 8 10 9 9 10
14 15 16 13 13 20 13 4 9 9 4 3 2 5 5 6 5 3 2 3 5 4 3 2 1 4 5 2 1 5 3 4 2 3 1 2 1 2 2 4 1 2 4 4 2 3 2 4 4 4 6 5 5 6 7 9 7 4 4 5 7 6 6 5 4 2 3 1 3 1 3 8 9 5 5 3 3 9 12 12 12 10 9 9 9 9 9 10
12 13 14 11 11 16 11 9 12 7 3 4 1 4 4 4 4 1 2 4 6 1 3 1 1 3 2 1 2 4 2 2 2 1 2 2 1 3 1 6 6 4 3 5 4 4 3 5 5 6 5 4 6 5 7 11 5 4 4 6 6 6 5 5 4 3 2 2 4 4 4 5 10 5 1 2 3 8 12 15 14 10 10 9 8 9 9 9
13 10 12 12 11 13 12 10 10 7 6 5 2 3 4 5 2 3 2 5 4 1 1 1 3 1 2 2 0 2 1 2 1 3 3 2 0 3 2 5 6 5 1 3 6 4 1 4 7 8 6 6 5 1 4 7 4 3 6 6 5 4 4 4 3 2 1 2 6 7 7 4 10 4 3 2 3 8 11 12 11 9 9 7 7 7 7 6
14 10 10 11 10 11 10 9 9 9 9 7 4 2 4 3 2 2 4 6 2 1 1 2 3 2 5 4 3 1 1 2 0 1 2 1 2 5 1 3 6 4 1 3 4 4 1 1 3 4 4 5 5 3 1 2 3 6 7 5 5 4 4 3 1 3 1 4 8 9 13 10 8 3 5 4 5 8 9 8 8 8 8 8 6 6 6 7
14 12 9 10 10 9 7 5 5 6 7 7 4 2 2 1 3 4 8 5 1 1 2 1 2 4 6 6 3 2 3 2 1 2 2 2 2 4 1 2 3 3 2 4 5 3 1 0 2 2 3 5 6 5 3 3 4 5 4 3 3 4 3 4 4 3 1 6 4 4 8 10 9 7 4 5 6 7 9 9 8 8 9 8 5 5 6 7
14 13 10 11 11 10 8 7 6 8 7 5 2 1 3 1 2 5 5 1 2 4 4 3 2 4 6 4 2 3 4 2 3 5 5 4 3 4 4 5 5 1 3 5 4 4 2 4 3 1 2 4 6 4 3 4 2 3 3 4 2 4 3 3 3 1 3 7 3 2 4 5 13 11 7 8 9 10 10 9 9 8 8 7 4 5 5 5
15 14 13 13 13 12 12 11 9 10 9 3 1 3 6 3 7 5 4 3 4 3 3 3 1 2 5 3 2 4 3 3 4 3 3 4 4 5 6 5 6 2 3 5 1 2 3 4 2 4 3 4 8 6 3 2 3 6 5 4 3 1 0 3 4 2 5 7 3 3 3 4 9 8 11 16 17 15 11 10 10 8 8 7 4 4 4 5
15 14 16 16 15 13 12 11 10 9 7 1 2 4 4 7 6 5 7 7 3 1 2 3 3 3 3 3 4 4 3 4 5 5 3 3 3 5 6 7 6 2 2 2 1 3 4 7 5 8 3 6 12 9 6 6 5 5 4 5 5 5 4 5 4 4 7 6 4 1 2 4 4 4 8 14 15 12 9 9 9 7 7 4 2 4 4 5
16 16 17 18 16 15 13 12 10 7 4 1 3 3 7 10 3 3 7 6 2 0 1 2 4 4 3 3 3 4 4 5 3 6 4 5 5 6 5 8 10 6 5 4 3 3 4 9 6 3 1 7 10 4 5 8 4 2 3 4 3 5 5 3 3 4 1 4 5 3 4 6 4 3 4 5 6 8 8 8 7 10 8 3 3 6 6 6
18 18 19 20 20 18 15 14 12 7 2 3 4 6 10 9 4 5 5 5 5 5 5 1 3 4 5 3 3 5 2 2 2 4 4 4 5 6 4 5 10 13 10 7 3 3 3 6 2 2 2 4 4 1 3 3 3 3 2 4 4 4 6 3 3 1 4 3 7 2 5 10 6 4 5 6 5 7 9 7 8 12 7 4 6 8 7 8
23 20 18 22 23 20 17 16 15 9 3 3 7 10 8 5 5 6 4 4 4 6 8 4 4 6 6 3 4 6 3 1 3 4 3 3 4 6 7 4 6 16 17 9 3 4 4 4 4 3 2 2 1 1 3 2 3 6 4 5 3 2 4 3 2 3 2 5 6 5 11 16 12 6 3 3 5 9 11 10 11 11 6 6 9 9 9 8
25 17 14 23 27 21 17 19 18 11 4 3 11 13 5 3 4 3 3 4 3 4 7 7 6 6 7 6 4 5 6 4 4 4 4 4 5 5 9 4 5 14 18 11 3 4 4 4 5 2 2 1 3 2 2 3 2 5 3 3 4 3 2 2 2 3 4 4 4 11 17 17 14 7 4 7 11 12 13 11 11 11 8 9 11 11 10 7
19 9 8 20 30 23 21 23 17 8 3 5 13 13 4 2 4 3 4 4 3 4 6 7 5 3 4 6 4 4 7 7 7 6 4 5 5 4 8 6 6 11 15 13 7 3 3 4 4 1 1 0 2 1 5 3 1 2 0 0 2 2 4 3 3 3 3 3 4 12 16 15 10 7 8 13 13 12 12 10 10 12 11 11 10 10 10 8
13 4 3 16 30 29 28 23 12 5 5 7 11 8 2 1 4 6 8 6 3 3 5 5 5 4 4 5 4 4 6 6 6 5 4 5 5 5 6 7 5 5 7 9 6 0 3 3 4 1 3 1 3 6 8 9 6 4 3 3 1 1 2 1 1 2 3 4 4 6 12 16 7 8 10 12 10 11 12 11 10 10 11 11 11 11 9 8
8 4 2 18 35 36 29 16 6 5 5 7 9 7 3 3 4 5 5 6 4 2 3 5 7 7 6 5 4 4 5 4 6 6 5 6 5 5 8 10 9 8 6 3 4 3 3 3 5 3 1 5 7 5 3 5 8 9 7 8 8 6 4 1 5 3 3 4 5 4 10 17 6 7 6 7 8 9 11 11 10 10 11 12 11 11 10 8
5 4 5 25 42 39 24 9 6 6 5 8 8 5 4 4 4 4 4 5 3 2 1 3 7 7 6 5 4 5 6 5 7 7 5 6 9 9 8 8 10 11 9 5 3 3 3 2 4 6 6 7 6 3 2 2 5 6 4 6 7 6 7 6 8 5 2 2 3 3 6 16 7 7 5 6 8 9 10 12 11 9 10 11 10 10 9 8
5 4 8 30 47 38 16 6 7 6 7 7 5 4 3 2 2 4 5 5 4 4 4 4 5 6 6 4 4 5 7 6 7 8 4 5 10 10 7 9 11 10 6 4 2 1 2 2 3 6 6 3 3 3 3 3 3 3 4 4 6 8 9 8 6 3 3 5 4 4 5 17 10 3 5 5 6 7 8 9 10 8 7 8 9 8 8 8
6 2 4 25 43 33 13 7 9 9 11 9 9 10 6 2 4 5 5 6 6 5 6 6 4 5 6 5 5 7 8 6 7 7 7 7 8 5 8 13 13 9 6 5 5 6 4 3 4 3 5 5 4 2 2 4 0 3 4 4 7 10 9 3 1 2 4 9 9 5 10 18 10 3 4 2 4 6 6 5 7 7 6 7 7 7 8 8
5 1 2 13 25 20 9 6 7 9 14 14 13 13 10 6 6 8 7 7 6 4 4 5 4 4 5 4 3 7 8 8 9 5 6 8 5 2 5 12 15 11 5 2 5 7 6 5 7 7 8 10 11 9 5 2 2 3 3 6 10 14 14 8 3 5 11 10 9 7 15 20 15 6 3 3 4 6 6 5 6 7 7 7 7 8 8 8
4 3 2 5 9 9 8 5 3 5 11 14 10 9 13 12 6 5 9 9 8 6 3 2 1 2 4 5 6 10 11 11 7 3 5 6 2 3 2 6 10 7 1 2 6 7 3 4 10 13 15 14 14 14 6 7 5 5 6 10 13 15 17 11 7 11 11 3 5 14 23 23 21 21 20 13 8 9 11 8 7 7 8 9 9 10 9 8
4 4 4 5 4 6 8 8 8 7 6 9 8 6 14 17 8 3 7 9 9 8 5 4 4 5 8 11 12 13 13 9 6 8 13 10 4 3 2 1 4 2 4 1 4 5 3 4 12 17 20 18 17 20 11 8 7 9 10 12 14 14 15 14 16 21 11 4 8 24 24 18 19 26 32 26 14 13 17 15 11 9 9 10 10 9 9 9
5 4 6 9 6 7 11 13 15 15 11 9 9 8 12 15 13 10 9 6 6 9 8 6 11 17 19 17 13 11 10 8 8 14 18 13 6 1 2 1 3 1 2 0 2 2 4 7 13 16 21 21 20 25 18 8 6 8 9 13 16 16 18 20 24 27 16 11 19 23 17 15 19 27 33 27 16 13 17 17 13 10 9 7 7 9 10 10
5 2 3 8 7 8 14 16 17 19 18 14 10 11 14 17 19 16 7 4 4 9 12 12 16 24 25 19 12 7 8 9 12 14 13 11 8 4 3 6 3 1 2 2 2 2 3 7 12 15 17 18 20 25 20 9 8 10 10 13 17 19 20 22 26 28 25 25 26 21 17 18 23 30 29 21 16 14 13 13 14 13 11 8 9 11 10 10
6 2 3 6 7 8 11 12 12 12 15 15 12 13 16 19 21 16 7 9 9 9 12 19 24 21 18 16 12 13 17 18 18 17 12 9 8 6 5 6 2 2 1 3 2 2 3 7 11 10 11 14 19 21 16 11 12 15 14 17 23 23 17 19 25 26 23 23 22 19 18 19 25 28 21 16 19 18 14 16 20 20 16 13 14 14 11 11
12 8 3 3 6 9 10 10 11 10 9 11 13 14 16 20 22 18 11 12 16 13 13 23 28 15 7 11 16 21 26 25 23 23 17 9 7 6 5 6 6 4 3 4 2 2 4 6 6 7 8 13 17 16 12 9 9 10 16 25 30 24 17 20 25 21 16 16 17 17 16 18 23 20 11 12 17 16 16 20 21 19 16 14 15 18 16 12
12 11 7 4 5 9 10 9 11 11 8 11 17 18 18 21 22 18 11 8 16 19 15 18 20 11 5 12 22 27 27 25 24 23 18 9 6 7 7 7 9 8 6 5 3 3 5 5 5 7 8 12 15 10 3 4 3 8 16 23 25 22 21 25 24 19 14 12 12 15 17 21 23 17 13 16 14 11 15 19 18 17 16 13 15 19 18 14
Wind_Direction
13 12 11 12 13 12 12 13 13 11 12 11 13 15 17 18 18 17 13 7 6 11 7 301 246 240 249 237 227 332 351 343 346 127 167 189 76 22 358 5 1 358 18 29 76 153 170 44 45 108 125 80 9 344 24 31 72 54 80 98 187 182 200 189 185 198 174 226 217 206 188 151 194 222 164 157 66 83 168 268 271 293 284 238 279 191 161 163
9 9 8 8 7 8 8 8 9 8 8 7 7 8 10 13 14 15 14 8 359 0 4 346 286 250 243 241 241 292 336 338 320 268 155 163 41 20 11 11 360 357 19 38 65 119 132 17 82 104 85 49 350 347 28 359 64 85 113 93 241 198 208 200 180 192 178 73 180 193 185 161 198 176 153 203 241 124 182 247 281 291 270 230 179 152 156 161
2 3 2 2 1 1 2 2 3 3 3 2 2 3 4 7 9 11 12 9 360 354 354 352 325 275 247 242 247 278 322 341 323 255 217 197 14 5 9 16 6 6 21 29 43 69 102 137 134 112 63 59 2 4 46 9 29 153 115 101 244 211 230 226 189 198 196 144 147 184 163 183 219 161 156 199 211 177 205 224 204 238 234 191 166 157 157 161
358 357 356 355 355 354 355 356 356 357 357 358 358 359 359 1 5 6 8 9 3 353 349 348 335 299 257 240 244 275 326 357 296 214 180 238 343 346 352 9 6 17 34 31 40 57 87 104 106 95 73 72 340 15 65 338 285 146 115 170 230 199 247 227 202 210 193 157 154 155 126 219 220 166 183 160 168 241 232 225 207 219 212 173 174 170 166 166
356 354 352 350 350 349 349 349 350 351 352 353 354 354 356 357 360 2 4 5 3 356 348 343 337 325 274 236 235 276 3 23 268 192 168 236 290 345 348 3 5 28 44 35 47 51 64 76 70 55 59 81 350 28 95 295 81 98 223 210 211 165 237 229 204 213 168 129 122 130 156 204 150 173 203 169 204 236 227 228 218 221 194 164 175 174 172 172
351 350 349 346 346 346 345 345 346 347 347 348 350 350 352 352 355 358 359 1 1 356 351 343 337 338 292 220 225 260 64 222 245 177 197 217 231 333 355 1 7 39 43 45 65 59 48 41 55 58 50 69 40 82 202 291 29 139 272 269 229 182 220 223 173 217 163 127 147 166 181 150 135 246 221 191 223 227 135 243 228 218 174 166 169 168 174 177
344 344 344 342 341 340 341 341 341 342 343 345 346 348 348 348 351 353 354 357 358 355 352 345 335 335 323 173 202 83 75 252 242 182 213 210 228 315 352 356 14 40 49 57 66 88 73 40 59 117 84 79 182 151 169 297 26 99 200 278 251 177 222 239 121 192 170 160 193 175 136 152 187 241 36 217 233 226 159 285 195 173 156 161 164 170 183 183
341 339 337 337 335 335 336 336 337 338 339 340 342 345 345 346 346 348 350 352 355 352 347 343 330 329 117 157 176 12 335 253 216 191 217 219 242 306 329 346 30 52 74 58 60 134 103 56 103 154 82 93 177 149 133 266 28 86 169 241 217 195 244 277 278 187 179 204 171 122 198 220 206 210 282 246 238 224 208 115 123 141 145 162 173 178 185 184
337 335 332 332 329 331 331 330 332 333 335 337 338 341 342 343 341 343 346 346 351 349 343 344 323 280 157 150 101 14 276 219 175 198 216 231 258 301 296 29 54 73 83 59 58 114 109 124 187 189 164 142 156 144 18 229 284 185 169 202 220 269 284 319 283 198 152 219 121 160 247 269 283 300 269 260 243 197 152 117 138 145 154 177 180 182 184 184
330 330 330 328 326 326 326 326 327 329 332 332 334 337 338 340 338 338 341 341 346 345 340 340 316 232 215 177 86 23 250 191 180 216 207 228 243 262 251 98 70 83 90 70 65 73 95 174 173 151 146 122 140 140 332 164 185 175 159 206 218 274 308 355 295 299 23 225 167 200 251 276 332 346 253 272 244 150 132 131 165 161 176 186 183 190 188 189
325 324 324 323 323 322 323 323 323 325 327 329 332 333 335 337 335 335 336 335 339 339 329 329 323 246 229 146 124 211 229 180 202 212 199 227 202 211 174 95 78 98 102 84 80 81 107 157 145 122 138 129 134 53 300 184 113 137 132 256 271 318 297 251 284 290 297 233 181 184 243 281 19 253 236 242 117 156 147 161 184 183 193 189 187 190 189 197
321 320 320 319 318 317 320 319 318 321 322 325 327 329 333 334 332 331 330 330 333 332 309 313 321 236 213 86 184 219 215 183 202 206 219 211 176 171 99 80 76 92 122 106 105 110 116 145 128 99 256 150 137 38 218 150 77 87 96 282 301 353 316 233 266 278 187 206 183 161 267 258 195 228 238 190 140 155 149 179 194 198 202 191 194 191 195 202
319 319 318 317 315 315 317 316 316 317 317 321 323 327 331 331 330 327 326 328 330 325 291 300 301 217 158 296 225 214 213 205 214 208 175 166 157 132 87 83 86 88 110 120 125 121 117 144 117 103 129 112 139 175 114 62 50 281 82 63 311 355 324 258 60 72 157 179 178 156 286 256 211 230 240 150 152 144 159 203 201 205 207 196 201 198 204 203
319 317 316 316 315 315 316 316 315 314 315 317 320 323 328 330 328 323 324 328 329 316 281 300 281 179 146 255 231 204 218 215 216 204 161 165 149 114 91 90 93 95 99 111 123 118 111 125 105 98 101 83 137 147 54 12 28 69 359 37 5 341 287 291 7 135 159 177 164 148 267 270 249 242 237 182 170 164 193 218 204 208 209 202 207 205 211 207
318 316 316 315 315 315 317 317 314 314 314 314 318 322 327 330 324 321 324 328 331 297 265 281 209 150 101 276 244 197 220 212 208 200 173 171 155 128 110 110 104 98 98 104 113 112 112 116 95 81 343 357 60 83 19 347 12 33 322 304 337 197 270 299 281 180 197 266 140 156 237 275 274 261 240 180 175 185 212 222 209 216 212 209 211 207 215 214
316 315 314 314 314 315 316 316 315 315 313 314 318 321 326 327 319 318 321 328 332 269 222 195 183 148 70 275 215 193 224 201 198 197 181 166 163 149 128 120 105 96 100 103 106 107 98 85 70 68 110 40 74 84 33 3 345 3 54 257 275 220 279 310 291 224 238 133 213 219 237 279 277 274 289 169 186 197 224 231 218 220 217 212 214 210 214 212
315 314 313 313 313 314 315 315 315 315 314 317 321 323 327 323 314 314 321 338 341 199 141 151 160 139 291 236 168 282 251 175 181 182 175 147 133 146 135 114 93 96 95 95 104 95 54 53 70 281 46 44 93 92 35 334 300 320 22 251 252 225 253 298 294 281 244 184 229 233 238 258 266 271 253 186 192 201 227 235 224 224 223 216 215 214 214 212
315 314 313 311 312 313 314 314 314 314 314 318 325 326 325 317 308 311 317 41 101 119 106 104 115 100 282 229 212 264 200 169 169 160 167 149 128 142 140 113 112 103 66 51 59 38 7 35 78 347 18 23 74 100 164 243 221 226 228 240 269 255 239 254 266 272 110 209 243 235 244 255 266 273 260 206 186 210 231 236 230 229 228 221 215 214 216 215
317 316 313 312 314 314 315 316 315 314 314 319 326 327 321 312 309 290 145 113 131 139 173 223 148 141 237 244 256 246 176 165 169 170 170 153 134 133 116 97 102 97 66 2 322 18 43 47 65 227 238 209 191 170 200 214 180 186 200 196 237 256 256 243 240 258 181 244 254 240 245 258 266 273 271 239 181 222 241 242 241 238 235 224 215 217 217 220
320 318 315 315 316 314 316 318 316 315 317 323 333 337 332 340 351 324 325 283 207 190 200 219 199 225 267 267 192 179 181 181 189 183 168 161 147 132 98 61 53 58 111 188 246 10 96 164 237 226 216 212 212 201 194 178 147 143 155 190 232 239 265 263 247 290 329 217 260 252 251 264 265 269 273 260 178 238 248 241 247 243 238 227 214 220 218 223
321 319 317 317 317 316 317 318 316 312 314 323 334 343 333 154 348 300 307 292 258 223 231 234 207 254 264 249 191 169 162 233 224 178 166 165 141 149 241 47 84 317 256 185 178 353 89 208 240 228 208 204 200 180 139 118 125 125 166 214 258 233 254 271 279 320 350 176 264 281 280 269 264 267 272 262 210 245 247 230 243 245 240 230 215 223 222 221
320 319 317 315 317 317 317 318 314 305 305 312 318 318 202 195 208 224 167 299 286 246 236 262 253 264 259 241 222 160 121 258 267 225 177 157 118 186 227 75 140 208 276 135 146 356 53 240 248 223 166 118 83 124 127 120 133 129 142 192 259 244 270 296 329 346 360 189 270 296 288 271 265 263 265 260 238 248 248 218 232 244 240 229 218 224 220 213
318 321 317 314 316 317 319 319 310 301 296 288 283 262 230 199 176 175 136 279 292 280 231 230 213 246 258 248 206 161 165 217 243 258 186 157 135 184 156 116 153 181 192 177 176 170 208 254 257 188 140 117 81 100 119 111 128 161 150 183 249 248 277 287 307 330 290 222 277 289 279 269 263 256 258 264 254 252 252 225 232 240 236 229 220 220 214 209
315 319 318 316 317 319 323 320 307 298 283 265 256 240 213 176 159 167 144 36 286 289 248 214 204 217 219 209 175 171 207 209 195 251 181 158 146 155 161 150 146 190 222 190 174 193 231 241 168 110 124 124 117 130 142 150 223 239 198 208 238 230 221 238 278 320 313 320 324 308 294 278 249 240 254 288 323 273 253 234 246 243 231 236 228 220 214 210
313 316 316 317 317 321 326 320 312 312 289 265 232 215 189 178 167 149 76 17 281 295 288 226 218 213 188 109 149 173 184 239 216 222 175 165 152 138 184 163 156 217 211 161 156 215 249 228 137 121 114 114 140 194 190 176 206 289 231 215 222 225 232 249 325 352 356 330 332 12 324 297 214 196 260 299 326 285 247 219 252 248 216 222 232 225 216 214
314 320 318 316 318 325 329 324 328 332 306 278 212 189 173 177 178 152 78 32 274 274 274 210 188 181 169 119 149 159 119 282 266 136 156 178 170 136 152 169 124 214 181 138 153 220 257 162 117 146 160 153 178 236 226 172 152 283 247 204 201 199 207 222 22 15 300 252 302 54 337 282 276 153 242 265 274 278 268 241 251 253 222 213 226 226 214 213
308 323 320 314 322 330 333 314 318 329 316 296 196 185 184 178 191 198 39 349 274 228 156 219 203 153 169 174 156 141 182 271 7 65 111 165 235 85 150 200 155 199 177 130 193 238 151 91 75 120 137 157 196 246 220 160 139 238 235 128 136 151 173 184 144 168 237 269 321 336 171 274 278 212 230 257 250 276 276 265 260 256 243 227 225 222 214 212
291 316 319 313 322 327 324 306 308 319 328 320 247 205 197 176 197 163 68 277 268 149 132 242 112 125 141 50 76 118 216 293 82 286 340 66 260 59 189 221 176 184 189 140 211 257 124 148 172 148 132 177 206 234 196 161 155 236 185 117 124 140 153 154 134 178 258 22 307 258 159 270 274 239 328 350 222 254 263 260 261 259 251 239 228 222 216 212
273 295 315 312 313 317 315 304 290 282 311 329 306 246 192 184 204 72 91 247 262 77 105 128 129 124 59 96 203 80 3 348 118 264 341 70 265 69 182 214 146 157 192 144 223 258 89 197 194 151 152 204 207 247 191 172 193 186 129 98 77 74 84 91 123 150 34 338 256 234 170 224 274 224 126 63 193 232 248 253 258 259 258 248 233 225 212 205
264 271 307 312 300 302 307 300 279 274 290 302 295 250 186 188 115 108 232 242 244 203 120 121 172 161 104 132 252 277 188 275 256 345 10 101 9 37 130 176 101 119 323 345 270 250 359 279 205 151 169 186 143 91 81 135 141 128 109 72 46 39 50 50 57 93 29 267 252 229 183 192 271 252 160 184 198 207 221 242 258 262 265 251 230 221 204 201
258 255 281 296 283 289 302 295 300 307 293 287 288 185 161 40 88 181 232 237 246 240 148 172 196 142 142 162 210 189 169 260 208 140 146 165 46 43 92 169 94 81 342 316 284 278 349 27 231 216 153 130 104 78 36 47 95 109 100 74 28 339 11 18 357 56 257 256 258 240 181 184 244 251 198 233 249 220 205 215 227 237 254 249 220 214 208 205
255 247 257 274 271 273 272 260 292 325 313 292 271 135 97 65 223 210 223 245 248 220 172 184 207 171 175 173 193 179 165 221 201 164 165 163 165 179 197 194 161 96 302 247 264 326 281 220 212 188 163 144 119 87 21 4 63 109 105 90 49 321 350 346 309 132 228 255 249 143 147 212 246 246 230 243 257 241 217 210 209 209 233 240 213 215 217 205
249 241 243 255 259 258 258 262 278 299 307 300 203 67 85 197 238 189 167 211 221 212 144 124 115 144 148 145 220 197 163 213 193 169 175 148 171 224 246 222 172 169 251 210 220 345 290 286 146 156 242 185 159 167 209 234 178 165 152 131 142 157 83 274 270 276 270 271 268 136 145 249 269 256 221 219 230 227 213 216 218 213 226 230 213 215 221 212
244 237 235 245 252 249 248 256 265 280 301 340 127 79 112 225 242 139 179 218 226 17 62 95 85 97 147 193 227 189 180 229 174 152 184 138 160 233 240 228 201 157 114 152 170 174 240 283 197 173 216 177 181 199 178 139 152 179 155 141 158 156 177 232 233 249 274 290 294 217 184 226 254 263 216 213 229 230 215 220 228 243 247 235 241 240 228 220
238 232 232 235 235 231 232 240 245 258 281 150 134 144 199 225 225 143 199 208 192 47 49 66 94 119 234 262 263 224 208 232 155 135 184 178 191 212 194 203 197 162 129 170 221 167 217 267 233 176 272 169 180 207 122 112 135 194 128 125 178 177 173 214 216 196 228 318 291 230 221 227 216 282 265 231 245 238 228 229 233 250 248 218 248 248 232 223
228 225 227 222 219 220 221 222 219 218 210 144 165 206 223 229 186 179 200 169 175 157 119 28 105 149 244 268 253 245 214 235 164 149 209 211 223 219 193 206 190 179 180 177 197 173 195 273 272 55 315 187 176 199 119 125 170 162 148 177 205 179 139 145 263 32 74 281 272 243 259 272 280 283 236 210 228 232 231 226 227 240 230 192 236 240 230 223
214 213 215 212 213 216 214 207 196 190 159 130 204 218 223 230 187 181 182 148 162 139 135 208 200 172 217 233 225 210 171 224 184 171 212 219 241 208 193 246 193 188 200 190 201 210 184 265 255 158 208 254 340 76 70 17 119 132 194 209 173 117 97 113 244 351 32 245 270 292 272 274 279 275 217 199 231 232 232 226 229 239 217 206 237 238 232 224
205 204 217 215 209 207 206 199 182 169 123 140 228 236 216 211 213 174 151 137 131 143 161 212 212 175 194 212 223 180 170 197 177 178 208 209 247 191 164 212 200 194 206 197 226 243 167 240 262 152 133 337 7 85 94 352 61 126 204 205 116 140 159 113 169 227 248 237 275 282 275 271 262 247 219 232 226 220 228 227 228 234 218 217 236 238 234 223
193 195 244 214 203 200 193 186 169 150 141 184 226 239 211 216 253 218 191 167 126 165 191 221 221 195 189 186 182 167 183 194 172 181 210 198 237 205 160 192 205 202 204 188 195 227 147 212 253 13 2 357 35 175 187 210 38 68 235 63 59 156 170 167 164 180 213 210 261 278 280 275 253 188 191 226 221 205 213 217 217 223 218 217 226 232 229 214
177 195 282 188 191 194 182 170 156 156 194 207 224 232 205 277 255 233 218 194 160 184 201 217 212 213 214 189 182 182 194 205 181 187 222 203 228 240 194 190 184 184 192 186 201 189 94 210 228 316 340 267 192 208 200 190 174 162 169 173 209 154 123 209 232 127 145 186 229 266 274 271 248 151 184 214 207 196 197 201 210 217 220 219 219 227 222 209
166 229 247 169 179 181 167 158 172 188 199 227 235 235 235 241 234 244 232 189 197 237 169 182 201 206 203 191 199 182 173 202 193 192 229 217 223 243 209 190 168 141 117 145 222 211 145 201 216 201 258 238 227 225 215 198 177 173 184 188 191 177 129 178 250 224 149 192 203 190 260 269 251 136 181 189 174 194 194 198 211 212 217 221 220 224 218 209
169 223 171 166 173 168 157 170 205 191 210 222 228 235 223 222 222 235 224 176 200 262 197 204 211 207 202 189 190 176 169 199 204 201 233 224 217 227 212 181 158 144 135 145 205 201 131 136 217 230 234 237 253 299 323 252 163 160 208 192 177 174 158 185 229 228 153 216 209 118 261 268 253 127 153 167 168 195 195 196 210 212 215 219 221 226 220 217
189 204 152 166 171 163 154 207 200 200 233 223 238 256 213 210 237 221 207 190 195 203 216 236 199 203 229 199 167 184 189 208 207 194 210 230 227 227 191 150 146 143 140 143 157 142 107 128 202 247 273 293 340 4 349 348 93 142 245 190 169 198 198 203 220 187 168 216 193 98 252 262 271 111 148 188 181 196 203 200 207 214 223 227 227 229 223 223
187 187 133 172 175 166 162 207 196 209 226 220 236 238 228 240 228 217 207 203 207 192 209 234 200 205 231 186 179 211 197 205 223 204 201 228 244 227 163 154 158 166 180 184 179 174 176 175 172 214 280 286 290 307 341 341 349 212 236 179 189 216 212 219 359 120 236 222 177 163 246 257 269 87 118 198 196 208 226 220 216 221 229 234 234 233 227 223
183 124 54 185 188 184 190 208 194 207 214 216 228 229 231 248 232 218 212 213 225 194 195 239 213 200 217 172 204 234 206 212 234 224 212 231 265 320 176 176 176 185 208 200 159 166 178 178 170 191 227 236 245 245 228 197 195 223 228 181 197 210 202 204 216 218 238 222 162 183 246 255 260 263 245 218 203 236 248 231 232 239 237 236 235 232 227 219
195 168 113 188 205 214 228 238 229 221 212 213 224 226 224 235 249 218 202 213 231 210 194 256 175 166 213 195 223 241 229 226 236 251 246 235 259 338 290 201 194 196 359 65 146 155 159 186 190 205 222 226 240 249 217 131 153 208 208 197 204 210 205 206 226 234 231 177 158 225 241 253 269 276 272 253 234 264 271 252 238 239 235 234 234 233 226 219
213 198 170 177 203 224 231 242 237 238 222 199 199 212 219 225 241 229 199 207 213 201 211 245 204 204 218 205 217 235 230 222 224 241 247 240 240 311 357 206 232 272 25 62 184 153 122 214 207 214 229 230 240 252 235 156 183 210 198 205 213 209 203 203 224 235 223 117 229 240 242 253 268 271 269 265 260 269 275 271 261 249 239 232 232 233 225 222
213 205 168 176 187 200 209 218 218 221 222 200 196 214 220 220 223 221 211 201 187 185 199 226 218 219 222 213 212 231 229 219 222 233 242 244 238 290 3 242 240 239 114 145 271 155 160 227 221 221 235 235 240 252 243 198 201 209 191 210 219 210 202 207 226 235 227 219 241 247 250 256 259 260 263 269 273 268 270 274 270 261 248 232 230 231 223 221
216 239 187 186 194 194 201 211 211 212 216 212 211 219 221 222 220 217 200 150 187 202 199 218 226 222 223 220 211 224 230 224 231 233 235 237 220 192 232 243 245 18 165 185 249 192 175 232 233 233 246 246 244 250 245 222 228 237 220 222 229 223 210 213 230 238 233 236 247 257 264 262 259 258 263 276 284 272 270 278 275 265 255 243 242 240 227 220
215 222 193 196 212 207 208 218 211 210 216 215 219 223 224 229 228 224 197 173 203 210 194 219 234 226 217 215 208 222 228 224 235 240 225 214 211 198 216 225 186 53 232 203 231 247 207 225 237 246 260 254 250 254 251 232 232 245 249 248 246 240 225 224 237 240 240 247 257 266 269 264 258 260 269 282 280 276 276 275 272 270 267 262 262 260 245 225
243 250 234 210 223 209 207 216 206 207 214 210 216 223 226 232 230 228 222 202 211 216 193 213 232 233 196 194 206 223 229 225 231 238 228 205 191 195 211 205 171 153 202 213 188 193 212 224 239 250 257 252 253 260 253 228 228 245 249 250 249 247 239 237 240 240 239 251 263 267 263 258 259 264 268 260 261 267 268 265 266 269 269 265 266 268 260 236
257 259 252 241 228 201 203 215 207 207 213 205 211 217 220 227 228 227 233 218 217 225 212 208 224 228 188 203 215 223 229 229 231 236 238 222 185 196 209 194 176 169 176 192 179 169 194 208 222 229 242 252 253 251 202 157 207 241 240 243 248 252 250 248 250 251 239 233 250 259 256 259 267 273 267 256 253 251 252 256 261 265 267 264 259 261 260 246
Height
836 835 834 833 832 832 831 830 830 828 828 827 826 825 824 823 822 821 819 817 817 816 815 815 814 815 814 814 814 814 814 813 812 812 811 811 811 810 810 809 809 808 808 808 807 807 807 808 808 808 808 810 814 815 815 817 819 818 824 829 829 838 836 828 831 832 827 823 825 831 830 828 828 834 837 837 837 838 841 841 839 839 839 838 837 837 838 840
837 835 835 834 833 832 831 830 830 829 828 827 826 825 824 824 822 821 820 818 817 816 816 815 814 814 814 814 814 814 814 813 812 812 811 811 810 810 810 809 809 808 808 807 807 806 806 808 807 808 809 813 817 816 816 818 819 821 829 829 827 831 828 824 824 826 826 822 824 830 832 830 827 830 835 833 833 838 838 837 839 838 836 837 837 838 839 840
837 836 835 834 833 832 831 830 829 829 828 827 826 825 824 823 822 822 820 819 817 816 815 814 814 813 814 814 813 814 813 813 813 812 810 810 810 810 809 809 808 807 807 806 806 806 806 807 806 808 811 815 819 818 817 818 820 824 828 825 824 825 824 826 824 822 824 824 825 828 832 832 829 831 833 831 832 837 834 829 833 833 830 834 837 838 838 840
837 836 835 834 833 832 831 831 830 829 828 827 826 825 824 823 822 821 820 819 817 817 815 815 814 813 814 813 814 814 812 814 814 810 810 810 810 810 809 808 808 807 806 806 805 805 806 806 806 808 811 815 821 821 819 820 821 824 824 820 823 827 823 821 822 821 823 827 825 826 831 830 830 834 832 831 831 832 828 822 821 820 821 830 835 837 837 838
837 836 835 834 833 832 831 831 830 829 828 827 826 825 824 823 822 821 820 819 818 817 815 814 813 813 813 812 814 813 814 820 814 808 809 809 809 809 809 808 808 807 806 806 805 805 805 806 807 809 812 816 820 819 820 823 822 822 823 822 825 829 821 818 823 823 825 828 826 827 827 825 830 833 830 830 825 818 817 816 815 814 817 825 830 833 836 837
837 836 835 834 833 832 831 830 830 829 828 827 826 825 824 823 822 821 820 818 818 817 815 815 813 813 812 812 814 812 817 820 811 807 809 808 809 809 808 808 808 807 806 806 806 805 806 807 808 812 814 817 821 820 821 826 825 821 822 824 826 828 821 819 824 824 825 824 822 824 824 826 829 826 828 828 816 810 813 815 815 815 819 822 826 830 832 834
836 836 835 834 833 832 831 830 829 828 828 827 826 825 824 823 822 820 819 818 817 816 815 815 813 813 812 812 813 813 817 814 807 807 808 808 808 808 808 808 807 806 806 806 806 806 808 809 810 815 816 817 822 822 822 825 825 821 820 822 824 829 822 819 824 825 826 821 820 826 825 825 824 823 829 824 810 810 815 816 816 816 819 822 825 828 828 829
836 836 834 834 833 832 831 830 829 828 827 826 825 824 823 822 821 820 819 818 817 816 815 814 813 813 812 813 813 816 818 811 807 807 807 807 808 807 807 807 806 807 806 805 806 806 808 811 813 816 816 818 821 821 823 823 822 821 820 821 825 827 821 820 824 823 825 823 825 827 821 821 824 827 827 814 806 812 815 815 817 817 819 822 823 825 827 828
836 835 834 833 832 831 830 829 828 827 826 826 824 823 823 821 820 819 818 817 816 815 814 814 813 812 813 813 814 818 814 807 807 807 807 807 807 807 807 807 806 806 806 806 806 805 808 812 813 814 814 819 821 820 822 820 819 820 820 821 822 821 819 821 821 820 825 825 826 824 819 822 827 829 817 803 805 810 813 815 816 818 819 820 821 822 824 825
835 834 833 832 831 831 830 829 828 826 826 825 823 822 822 820 819 818 817 816 816 815 814 813 813 813 813 812 816 819 810 805 807 806 807 807 807 807 806 807 806 805 805 805 806 806 808 810 811 812 812 818 820 821 823 820 819 821 822 822 822 821 822 823 819 821 825 823 825 822 818 822 827 829 810 797 807 811 811 815 816 816 817 818 819 820 822 823
834 833 832 832 831 830 829 828 827 826 825 823 823 821 820 820 818 817 816 815 814 814 813 812 812 812 812 812 817 816 806 805 806 805 807 806 806 807 806 806 805 805 805 805 807 806 807 808 809 811 812 815 818 822 824 821 821 823 823 821 821 823 821 823 821 822 824 821 824 822 821 825 829 826 804 797 810 811 809 812 816 815 815 817 817 819 821 821
834 832 832 831 830 829 828 827 826 825 823 822 822 820 819 818 816 816 814 813 813 812 812 811 811 811 812 813 814 810 805 805 806 805 806 805 806 806 806 806 805 805 804 805 807 806 808 808 808 810 813 815 818 821 821 823 825 824 825 820 818 820 817 820 822 824 824 820 822 824 821 820 823 813 795 801 811 810 810 810 813 815 814 816 817 818 819 819
833 832 831 830 829 828 827 826 825 823 822 821 820 819 818 816 815 814 812 812 811 810 810 810 810 810 812 813 808 805 804 805 805 805 805 805 806 805 805 805 805 805 804 805 806 807 808 807 808 811 814 815 817 820 820 825 827 824 827 824 821 820 816 819 824 825 823 820 822 824 816 803 805 801 794 806 811 808 809 808 812 814 814 816 816 817 816 817
832 831 830 829 828 827 826 825 824 822 821 820 819 818 817 815 814 812 811 810 809 809 809 809 810 809 812 810 804 804 804 804 805 805 805 805 805 805 805 805 805 805 805 805 806 807 807 807 808 810 815 817 818 820 820 825 826 824 826 828 832 825 815 818 825 824 818 821 823 823 818 798 791 793 794 805 808 805 804 804 810 812 813 814 814 815 813 813
831 830 829 828 827 826 826 824 823 821 820 819 817 816 815 814 812 810 809 808 807 808 808 809 809 809 813 808 803 804 804 804 804 804 805 805 805 805 805 806 806 806 806 806 806 807 808 807 808 812 818 820 820 819 820 822 824 828 823 822 834 831 820 818 822 823 816 819 824 821 818 803 789 789 794 806 809 805 801 801 808 810 811 812 811 812 810 810
830 830 828 827 826 825 825 823 822 820 819 818 816 815 814 812 810 809 808 807 807 807 807 808 808 809 813 808 803 803 803 803 804 804 804 804 804 805 805 806 806 806 807 807 807 808 808 809 814 819 819 819 821 819 821 823 823 832 830 820 825 828 825 820 818 826 822 818 821 818 814 803 790 788 797 809 808 806 802 800 805 806 808 809 807 808 807 809
830 829 828 826 826 825 824 823 821 820 818 817 815 813 813 811 809 807 807 807 807 806 806 807 806 809 809 805 803 803 802 803 802 803 804 804 804 804 805 806 807 807 807 808 808 809 809 812 819 821 821 824 826 821 823 826 820 827 835 827 825 826 827 821 814 823 827 821 819 818 817 804 789 786 795 805 807 806 801 798 800 802 803 804 804 805 805 807
829 828 826 825 825 824 823 822 821 819 817 816 815 812 811 809 807 807 806 806 806 806 807 806 807 812 809 802 802 802 801 802 802 803 803 803 804 804 804 805 807 807 808 810 810 810 811 815 820 820 821 826 826 822 823 823 816 818 826 824 824 827 828 824 818 820 823 821 819 819 818 806 793 787 787 796 805 802 795 794 796 796 797 798 801 802 802 803
828 827 825 825 824 823 822 821 820 819 816 815 814 812 809 807 806 806 805 806 807 807 808 807 806 810 807 801 801 800 800 801 801 801 802 803 803 803 804 804 807 807 810 813 811 813 815 816 821 820 819 820 818 816 814 812 813 815 820 822 822 823 824 822 819 822 824 821 819 818 815 806 797 789 782 787 800 798 791 793 794 792 792 794 797 798 799 799
827 826 825 824 823 822 821 821 820 818 817 814 813 811 809 810 810 808 806 805 805 804 805 804 802 802 801 798 799 799 799 800 800 800 801 801 802 803 804 805 807 809 812 813 812 818 820 818 819 816 812 810 810 812 813 816 820 820 823 825 825 826 823 816 818 825 827 821 813 810 812 808 799 791 783 783 793 793 789 791 791 788 786 788 792 793 794 794
827 826 824 823 822 821 820 820 819 818 817 815 814 813 812 814 814 812 809 804 801 802 801 800 801 800 797 797 798 797 799 798 798 799 799 800 801 803 804 806 809 811 815 819 817 819 822 819 813 808 808 810 813 819 821 822 824 822 823 824 827 831 824 816 821 826 828 824 814 810 812 806 798 791 782 781 787 781 778 785 785 779 779 782 787 788 788 789
827 825 824 823 821 820 819 819 818 817 816 816 815 814 813 813 812 812 812 808 802 800 800 801 801 799 796 796 796 796 798 798 797 798 798 799 800 801 804 807 810 812 817 822 818 820 824 816 804 805 814 818 821 826 823 821 824 824 827 829 826 828 823 818 824 830 829 825 815 813 813 799 789 787 776 771 775 770 767 774 774 769 771 777 779 781 783 786
826 824 824 822 821 820 818 817 816 815 815 815 814 814 813 812 812 812 813 813 805 798 798 798 798 796 794 794 794 796 797 797 796 794 795 797 799 802 802 806 811 812 816 817 814 820 820 809 808 814 816 813 818 826 824 821 824 824 826 826 820 823 822 815 821 828 828 826 820 818 813 791 779 778 769 764 768 766 764 767 766 764 765 768 771 774 777 780
825 824 823 821 820 818 817 816 815 815 814 813 813 812 812 812 812 812 811 813 808 798 795 796 795 794 791 791 792 793 796 796 794 792 793 794 798 802 800 803 810 811 812 812 812 816 809 806 820 822 814 810 812 822 824 820 821 823 825 821 815 817 819 816 822 827 824 826 828 819 794 768 765 768 759 764 771 765 764 764 761 762 763 764 766 768 770 772
824 823 822 821 820 817 816 815 814 815 814 813 812 811 812 812 811 813 812 814 811 800 795 793 793 791 788 790 791 792 795 794 792 792 792 793 795 800 801 803 805 804 807 812 816 815 805 810 820 814 812 814 810 814 819 817 819 821 817 814 812 812 815 820 826 825 819 818 825 822 794 760 758 766 758 762 766 757 760 761 752 754 761 764 764 763 766 767
823 822 821 820 819 817 815 814 814 815 813 813 812 810 812 811 812 812 811 818 814 798 791 790 789 787 786 790 792 793 794 792 791 792 793 793 793 794 799 803 804 803 807 812 815 811 806 816 818 808 811 814 811 813 816 818 820 818 814 814 817 818 820 823 824 822 817 817 823 826 813 782 760 758 755 757 758 749 751 753 745 747 754 758 758 758 762 764
821 821 820 820 819 817 816 815 815 814 813 813 811 812 813 811 813 811 812 822 811 786 785 790 788 785 786 791 792 791 792 791 792 793 793 793 793 793 796 801 804 805 809 811 809 805 805 814 817 811 811 814 813 811 813 818 815 813 819 821 818 819 821 822 822 821 820 826 828 822 823 808 774 759 757 756 757 753 748 746 743 745 748 750 753 755 757 759
820 820 819 819 819 818 817 817 815 814 814 813 812 813 812 811 814 810 817 826 801 774 778 786 786 785 786 792 792 791 793 791 790 792 794 794 794 794 795 798 799 801 807 806 800 801 804 806 807 808 811 812 809 807 813 814 806 811 827 828 823 822 823 823 823 823 828 833 826 818 828 817 776 761 769 766 762 756 745 738 736 737 740 743 747 751 754 756
819 819 818 819 818 818 818 816 816 814 813 813 813 813 811 814 812 811 829 827 789 768 776 780 783 786 788 793 793 792 794 793 791 792 794 794 793 795 797 799 800 801 807 806 797 798 805 808 807 804 803 803 807 818 823 812 804 818 833 831 829 830 830 830 826 823 831 830 814 808 821 811 767 748 765 771 764 753 740 735 734 733 736 740 743 746 751 755
816 816 817 818 817 817 816 815 815 813 813 813 813 813 812 813 812 821 836 817 779 773 780 780 782 786 789 792 792 793 794 792 794 794 795 795 794 795 799 801 801 800 805 807 801 801 809 816 815 805 801 805 814 827 832 822 818 826 828 821 822 829 833 836 832 827 825 811 795 795 807 805 774 748 753 757 749 740 732 731 734 733 732 734 740 744 747 751
813 814 816 816 816 816 815 815 814 812 814 813 812 814 812 814 821 828 820 791 775 780 780 780 786 785 786 787 785 791 794 792 793 793 793 796 796 796 799 799 801 804 805 804 801 803 808 810 808 805 807 812 813 819 829 832 830 824 817 812 813 818 823 826 828 829 818 793 787 802 812 809 782 750 746 746 739 736 731 725 724 725 724 725 734 741 744 748
811 812 813 814 814 815 815 815 813 813 814 812 814 813 812 819 822 813 798 779 775 777 772 778 787 784 786 786 784 790 792 789 790 791 791 795 796 795 792 789 793 798 800 800 800 799 799 800 802 804 809 810 801 807 823 829 828 820 813 814 816 817 818 814 813 819 811 790 794 816 816 800 769 739 740 744 736 734 733 728 721 719 720 721 730 738 741 747
808 809 811 812 812 813 813 813 813 814 812 813 815 810 815 823 805 787 786 777 770 773 772 777 786 787 787 786 784 789 791 787 788 790 790 793 796 793 789 788 789 786 786 797 803 797 790 795 803 800 799 800 793 795 804 810 819 817 808 809 812 817 820 811 807 813 804 786 798 820 810 782 752 729 729 732 724 722 728 731 725 720 720 722 731 738 740 745
805 806 808 808 810 811 812 812 813 813 813 814 813 811 820 816 787 775 780 772 767 775 778 780 787 789 786 783 783 785 784 782 786 789 790 794 797 792 787 788 790 786 786 797 800 795 787 781 786 787 784 788 787 783 783 793 811 814 807 806 804 804 804 796 793 794 785 780 797 815 798 762 734 719 718 721 719 720 724 728 729 727 727 731 736 739 739 742
802 803 804 804 806 808 809 811 811 812 815 813 810 814 811 791 774 776 774 768 770 775 779 784 785 785 785 785 786 783 776 775 784 789 789 790 788 782 777 778 785 785 785 792 792 795 792 774 774 787 789 788 785 783 786 790 802 813 813 807 801 794 789 791 800 802 800 798 795 794 775 742 724 721 721 723 722 722 723 726 729 727 728 735 736 734 736 739
799 800 800 800 800 803 806 808 809 811 814 812 812 810 789 764 763 770 762 759 763 766 776 784 781 781 783 781 783 782 776 777 784 786 786 788 781 776 773 768 773 776 772 777 782 786 786 775 780 795 793 792 792 789 791 786 787 807 811 799 799 799 788 790 807 819 825 809 780 769 757 731 720 720 717 718 720 720 722 725 724 722 726 734 732 729 732 735
794 795 795 793 795 799 802 804 808 811 813 813 808 792 770 757 757 758 754 756 758 758 767 772 770 772 773 770 773 779 778 779 784 782 781 784 772 765 770 763 764 768 758 760 768 768 769 770 781 789 782 792 806 797 793 793 790 798 798 790 796 802 796 794 800 807 816 807 776 758 748 725 716 719 717 719 722 718 717 720 719 720 726 730 726 725 728 730
789 791 789 786 789 796 799 803 806 807 811 814 802 777 763 759 756 755 755 756 755 755 759 761 760 761 763 762 766 776 778 774 780 781 774 774 761 749 758 759 757 762 754 754 761 761 765 766 775 792 788 793 808 796 787 796 799 793 791 792 791 789 793 800 802 794 795 801 779 750 740 721 704 708 710 709 712 710 709 715 718 718 722 724 722 722 725 728
786 790 783 777 784 792 796 801 804 808 811 810 796 775 763 760 757 757 755 752 752 754 756 756 754 757 760 760 761 771 774 768 774 777 765 763 758 746 749 748 748 756 755 755 758 757 764 764 767 793 802 795 797 792 780 786 799 800 796 798 792 786 788 793 797 790 781 787 777 753 739 707 679 688 693 686 692 699 701 706 710 711 713 717 718 717 720 724
782 786 777 771 779 787 792 798 803 806 805 794 781 770 765 761 756 753 751 752 751 751 753 753 752 754 757 760 761 761 765 765 769 770 760 756 752 744 745 741 741 753 757 757 758 756 764 765 762 786 806 796 782 777 767 764 781 793 791 793 792 791 794 791 792 791 780 777 775 768 747 695 664 676 678 673 683 691 694 696 698 703 706 711 715 712 714 719
780 782 774 769 776 781 789 797 797 797 794 784 772 766 764 760 753 750 749 752 751 748 750 750 748 749 749 755 758 756 760 764 765 764 756 750 746 737 735 734 735 748 758 763 762 757 762 764 761 772 786 779 764 763 767 761 764 773 774 776 777 779 788 788 784 788 787 776 766 767 749 692 662 672 671 673 685 686 691 694 692 697 699 703 710 709 710 714
776 775 769 768 773 776 783 788 786 785 783 773 764 760 759 755 752 750 749 751 753 751 751 749 746 746 745 746 750 752 755 755 757 759 752 745 741 731 726 729 734 740 747 755 757 755 756 759 762 761 757 760 767 776 783 774 765 768 768 766 768 771 774 771 767 772 782 780 769 776 762 696 658 672 677 677 684 682 688 692 689 694 696 697 702 706 709 711
768 767 766 768 769 770 779 783 781 780 772 761 757 756 755 754 754 753 749 749 751 750 750 747 743 744 743 743 746 749 749 747 747 750 747 741 734 726 725 731 737 737 738 746 751 753 756 757 762 761 749 754 771 782 785 778 770 768 767 766 768 764 758 756 759 762 764 764 764 778 766 699 659 677 682 678 683 682 686 692 690 691 695 696 700 704 708 709
760 763 766 769 768 768 773 773 771 771 767 761 760 757 755 754 753 752 751 748 746 745 744 741 739 740 739 741 742 741 743 743 738 738 739 734 728 727 728 729 733 733 731 733 736 741 751 753 758 766 761 756 760 765 771 776 774 765 760 765 764 758 758 761 767 771 759 743 745 758 742 690 667 685 688 683 686 684 687 697 697 694 694 696 700 703 706 707
758 762 765 767 767 766 762 756 756 760 761 761 760 756 756 754 748 746 749 747 743 742 741 738 739 739 737 740 741 738 739 737 732 733 734 729 727 732 733 729 728 727 725 726 726 729 738 743 747 758 762 756 746 739 743 757 768 764 758 760 759 757 759 756 758 763 748 732 740 743 715 678 668 679 682 685 688 684 688 697 698 698 697 697 700 700 701 704
753 757 764 768 767 763 756 752 754 754 753 757 758 755 754 752 744 741 745 746 742 741 741 739 740 740 738 741 741 736 736 735 734 736 732 727 727 733 740 737 730 728 730 729 728 729 733 735 734 734 735 734 728 720 723 737 748 750 748 749 753 754 753 752 752 743 730 734 743 726 698 683 679 676 672 676 682 680 681 686 688 692 694 696 696 694 696 699
747 746 753 761 762 761 759 756 756 751 746 750 752 745 744 746 744 742 742 740 737 740 743 740 738 738 736 736 736 731 729 734 738 735 727 725 729 735 742 743 736 734 735 732 730 731 733 731 727 723 719 717 714 710 717 727 728 731 737 741 745 751 754 756 745 720 716 735 730 701 691 699 698 681 664 663 674 678 675 674 677 679 682 685 687 689 692 695
740 734 735 739 742 747 750 747 746 747 744 743 740 733 733 738 741 740 736 735 735 738 740 738 734 731 725 724 728 728 727 732 735 728 721 722 728 734 736 737 739 739 737 736 736 733 730 725 721 719 715 712 711 706 711 722 723 724 730 731 731 739 747 747 730 711 714 719 699 683 692 702 695 674 657 658 670 675 671 668 670 672 673 677 680 682 686 689
732 730 728 729 728 730 732 730 734 741 740 738 735 730 728 727 726 725 727 734 737 735 733 729 722 718 718 719 725 729 729 727 724 719 718 721 725 730 730 728 735 742 739 736 736 735 730 722 716 716 715 714 713 707 709 723 727 723 725 726 721 722 731 733 718 705 705 700 686 687 699 698 680 659 653 660 666 668 669 667 666 666 668 672 674 675 679 683
727 725 725 726 724 723 725 726 730 736 736 736 734 728 724 720 715 715 718 723 727 728 728 721 709 707 714 721 727 728 719 713 712 709 711 718 721 724 725 721 725 740 744 736 735 738 733 721 714 716 718 716 711 708 713 722 723 721 723 720 710 708 719 724 710 697 698 697 694 699 705 694 667 650 659 668 664 663 667 665 661 659 661 665 666 666 670 675
722 719 720 722 719 718 720 721 725 730 730 730 729 723 719 716 709 708 709 707 707 711 716 713 705 707 717 722 723 718 705 702 705 702 703 712 716 717 719 717 717 730 740 738 735 736 734 726 719 722 725 717 708 710 715 718 724 729 722 706 696 698 707 704 691 687 696 701 701 703 700 678 651 649 666 668 662 664 665 660 657 654 655 660 661 657 658 663
721 718 717 717 712 710 713 715 718 721 717 714 714 710 708 705 702 705 709 704 698 698 702 705 706 711 718 718 710 701 694 695 697 697 699 706 709 709 712 713 712 717 728 734 734 732 731 727 722 727 730 719 711 714 717 721 730 727 706 689 687 692 692 683 675 681 691 698 700 695 678 656 644 652 661 659 660 665 661 654 653 651 652 657 656 651 649 651